| time (UTC) | temp C | wind direction | speed KPH | gust KPH | rain 1hr cm | rain 24hr cm | rain mn cm | humidity % | barometer mb |
| 20260902060054 | 16 | 0 | 0.0 | 0.0 | 0.00 | 0.89 | 0.00 | 79 | 1021.5 |
| 20260902054554 | 16 | 0 | 0.0 | 0.0 | 0.00 | 0.89 | 0.00 | 79 | 1021.5 |
| 20260902053105 | 16 | 0 | 0.0 | 0.0 | 0.00 | 0.89 | 0.00 | 79 | 1021.5 |
| 20260902051615 | 16 | 0 | 0.0 | 0.0 | 0.00 | 0.89 | 0.00 | 79 | 1021.3 |
| 20260902050054 | 16 | 0 | 0.0 | 0.0 | 0.00 | 0.89 | 0.00 | 79 | 1021.1 |
| 20260902044631 | 16 | 0 | 0.0 | 0.0 | 0.00 | 0.89 | 0.00 | 79 | 1020.8 |
| 20260902043102 | 16 | 0 | 0.0 | 0.0 | 0.00 | 0.89 | 0.00 | 80 | 1020.7 |
| 20260902041601 | 16 | 0 | 0.0 | 0.0 | 0.00 | 0.89 | 0.00 | 80 | 1020.6 |
| 20260902040055 | 16 | 0 | 0.0 | 0.0 | 0.00 | 0.89 | 0.00 | 80 | 1020.4 |
| 20260902034558 | 16 | 0 | 0.0 | 0.0 | 0.00 | 0.89 | 0.89 | 80 | 1020.1 |
| 20260902033053 | 16 | 0 | 0.0 | 0.0 | 0.00 | 0.89 | 0.89 | 79 | 1020.1 |
| 20260902031558 | 16 | 0 | 0.0 | 0.0 | 0.00 | 0.89 | 0.89 | 80 | 1020.1 |
| 20260902030058 | 16 | 0 | 0.0 | 0.0 | 0.00 | 0.89 | 0.89 | 80 | 1020.2 |
| 20260902024559 | 16 | 0 | 0.0 | 0.0 | 0.00 | 0.89 | 0.89 | 80 | 1020.1 |
| 20260902023050 | 16 | 0 | 0.0 | 0.0 | 0.00 | 0.89 | 0.89 | 80 | 1020.1 |
| 20260902021551 | 16 | 0 | 0.0 | 0.0 | 0.00 | 0.89 | 0.89 | 80 | 1020.3 |
| 20260902020047 | 16 | 0 | 0.0 | 0.0 | 0.00 | 0.89 | 0.89 | 80 | 1020.3 |
| 20260902014554 | 17 | 0 | 0.0 | 1.6 | 0.00 | 0.89 | 0.89 | 80 | 1020.2 |
| 20260902013101 | 17 | 0 | 0.0 | 0.0 | 0.00 | 0.89 | 0.89 | 80 | 1020.2 |
| 20260902011549 | 17 | 0 | 0.0 | 0.0 | 0.00 | 0.89 | 0.89 | 80 | 1020.2 |
| 20260902010047 | 17 | 0 | 0.0 | 0.0 | 0.00 | 0.89 | 0.89 | 80 | 1020.0 |
| 20260902004555 | 17 | 0 | 0.0 | 0.0 | 0.00 | 0.89 | 0.89 | 80 | 1020.0 |
| 20260902003054 | 17 | 0 | 0.0 | 1.6 | 0.00 | 0.89 | 0.89 | 81 | 1019.9 |
| 20260902001552 | 17 | 0 | 0.0 | 0.0 | 0.00 | 0.89 | 0.89 | 81 | 1019.6 |
| 20260902000052 | 17 | 0 | 0.0 | 0.0 | 0.00 | 0.89 | 0.89 | 81 | 1019.5 |
| 20260901234609 | 17 | 0 | 0.0 | 0.0 | 0.00 | 0.89 | 0.89 | 81 | 1019.6 |
| 20260901233104 | 17 | 0 | 0.0 | 0.0 | 0.00 | 0.89 | 0.89 | 81 | 1019.7 |
| 20260901231615 | 17 | 0 | 0.0 | 0.0 | 0.00 | 0.89 | 0.89 | 81 | 1019.5 |
| 20260901230109 | 17 | 0 | 0.0 | 0.0 | 0.00 | 0.89 | 0.89 | 82 | 1019.7 |
| 20260901224559 | 17 | 0 | 0.0 | 0.0 | 0.00 | 0.89 | 0.89 | 82 | 1019.5 |
| 20260901223054 | 17 | 0 | 0.0 | 0.0 | 0.00 | 0.89 | 0.89 | 82 | 1019.6 |
| 20260901221607 | 17 | 0 | 0.0 | 0.0 | 0.00 | 0.89 | 0.89 | 81 | 1019.5 |
| 20260901220051 | 17 | 0 | 0.0 | 0.0 | 0.00 | 0.89 | 0.89 | 81 | 1019.5 |
| 20260901214550 | 17 | 0 | 0.0 | 0.0 | 0.00 | 0.89 | 0.89 | 81 | 1019.3 |
| 20260901213057 | 17 | 0 | 0.0 | 1.6 | 0.00 | 0.89 | 0.89 | 82 | 1019.3 |
| 20260901211556 | 17 | 0 | 0.0 | 1.6 | 0.00 | 0.89 | 0.89 | 82 | 1019.2 |
| 20260901210052 | 17 | 0 | 0.0 | 1.6 | 0.00 | 0.89 | 0.89 | 83 | 1019.3 |
| 20260901204548 | 17 | 0 | 0.0 | 3.2 | 0.00 | 0.89 | 0.89 | 83 | 1019.2 |
| 20260901203054 | 18 | 177 | 0.0 | 1.6 | 0.00 | 0.89 | 0.89 | 81 | 1018.9 |
| 20260901201554 | 18 | 0 | 0.0 | 1.6 | 0.00 | 0.89 | 0.89 | 81 | 1018.8 |
| 20260901200054 | 18 | 0 | 0.0 | 1.6 | 0.00 | 0.89 | 0.89 | 81 | 1018.8 |
| 20260901194554 | 18 | 177 | 0.0 | 3.2 | 0.00 | 0.89 | 0.89 | 81 | 1019.0 |
| 20260901193052 | 18 | 0 | 0.0 | 1.6 | 0.00 | 0.89 | 0.89 | 80 | 1018.9 |
| 20260901191546 | 18 | 0 | 0.0 | 1.6 | 0.00 | 0.89 | 0.89 | 80 | 1018.9 |
| 20260901190052 | 18 | 177 | 0.0 | 3.2 | 0.00 | 0.89 | 0.89 | 80 | 1019.0 |
| 20260901184554 | 18 | 0 | 0.0 | 1.6 | 0.03 | 0.89 | 0.89 | 80 | 1019.0 |
| 20260901183111 | 17 | 0 | 0.0 | 1.6 | 0.03 | 0.89 | 0.89 | 80 | 1019.1 |
| 20260901181553 | 17 | 0 | 0.0 | 1.6 | 0.03 | 0.89 | 0.89 | 81 | 1019.0 |
| 20260901180049 | 17 | 0 | 0.0 | 1.6 | 0.03 | 0.89 | 0.89 | 80 | 1018.7 |
| 20260901174600 | 17 | 177 | 0.0 | 1.6 | 0.00 | 0.86 | 0.86 | 80 | 1018.5 |
| 20260901173122 | 17 | 177 | 0.0 | 1.6 | 0.00 | 0.86 | 0.86 | 80 | 1018.5 |
| 20260901171557 | 17 | 0 | 0.0 | 3.2 | 0.00 | 0.86 | 0.86 | 80 | 1018.8 |
| 20260901170055 | 17 | 0 | 0.0 | 1.6 | 0.00 | 0.86 | 0.86 | 80 | 1019.0 |
| 20260901164558 | 17 | 0 | 0.0 | 1.6 | 0.00 | 0.86 | 0.86 | 80 | 1019.0 |
| 20260901163111 | 17 | 0 | 0.0 | 1.6 | 0.00 | 0.86 | 0.86 | 80 | 1019.0 |
| 20260901161608 | 17 | 0 | 0.0 | 1.6 | 0.03 | 0.86 | 0.86 | 81 | 1019.0 |
| 20260901160103 | 17 | 0 | 0.0 | 1.6 | 0.03 | 0.86 | 0.86 | 81 | 1018.8 |
| 20260901154601 | 17 | 0 | 0.0 | 1.6 | 0.03 | 0.86 | 0.86 | 81 | 1018.6 |
| 20260901153052 | 17 | 177 | 0.0 | 1.6 | 0.05 | 0.86 | 0.86 | 81 | 1018.8 |
| 20260901151557 | 17 | 0 | 0.0 | 3.2 | 0.05 | 0.84 | 0.84 | 81 | 1018.8 |
| 20260901144553 | 16 | 0 | 0.0 | 1.6 | 0.15 | 0.84 | 0.84 | 81 | 1018.7 |
| 20260901143103 | 16 | 0 | 0.0 | 1.6 | 0.23 | 0.81 | 0.81 | 82 | 1018.5 |
| 20260901141602 | 16 | 0 | 0.0 | 1.6 | 0.30 | 0.79 | 0.79 | 82 | 1018.5 |
| 20260901140055 | 16 | 177 | 0.0 | 1.6 | 0.41 | 0.74 | 0.74 | 83 | 1018.7 |
| 20260901134600 | 16 | 0 | 0.0 | 1.6 | 0.48 | 0.69 | 0.69 | 83 | 1019.0 |
| 20260901133104 | 16 | 0 | 0.0 | 1.6 | 0.48 | 0.58 | 0.58 | 84 | 1019.3 |
| 20260901131557 | 16 | 0 | 0.0 | 1.6 | 0.46 | 0.48 | 0.48 | 85 | 1019.3 |
| 20260901130106 | 16 | 0 | 0.0 | 0.0 | 0.33 | 0.33 | 0.33 | 85 | 1019.4 |
| 20260901124556 | 17 | 0 | 0.0 | 1.6 | 0.20 | 0.20 | 0.20 | 86 | 1019.3 |
| 20260901123052 | 17 | 0 | 0.0 | 1.6 | 0.08 | 0.08 | 0.08 | 85 | 1019.3 |
| 20260901121553 | 18 | 0 | 0.0 | 0.0 | 0.03 | 0.03 | 0.03 | 85 | 1019.3 |
| 20260901120106 | 18 | 0 | 0.0 | 0.0 | 0.00 | 0.00 | 0.00 | 85 | 1019.0 |
| 20260901114552 | 18 | 0 | 0.0 | 0.0 | 0.00 | 0.00 | 0.00 | 85 | 1019.1 |
| 20260901113101 | 18 | 0 | 0.0 | 0.0 | 0.00 | 0.00 | 0.00 | 84 | 1019.0 |
| 20260901111609 | 18 | 0 | 0.0 | 1.6 | 0.00 | 0.00 | 0.00 | 84 | 1018.8 |
| 20260901110056 | 18 | 0 | 0.0 | 0.0 | 0.00 | 0.00 | 0.00 | 84 | 1018.6 |
| 20260901104555 | 18 | 0 | 0.0 | 1.6 | 0.00 | 0.00 | 0.00 | 84 | 1018.5 |
| 20260901103102 | 18 | 0 | 0.0 | 0.0 | 0.00 | 0.00 | 0.00 | 84 | 1018.2 |
| 20260901101612 | 18 | 0 | 0.0 | 0.0 | 0.00 | 0.00 | 0.00 | 83 | 1017.9 |
| 20260901100109 | 18 | 0 | 0.0 | 0.0 | 0.00 | 0.00 | 0.00 | 83 | 1017.7 |
| 20260901094554 | 18 | 0 | 0.0 | 0.0 | 0.00 | 0.00 | 0.00 | 82 | 1017.8 |
| 20260901093052 | 18 | 0 | 0.0 | 0.0 | 0.00 | 0.00 | 0.00 | 82 | 1017.8 |
| 20260901091556 | 18 | 0 | 0.0 | 0.0 | 0.00 | 0.00 | 0.00 | 82 | 1017.6 |
| 20260901090100 | 18 | 0 | 0.0 | 1.6 | 0.00 | 0.00 | 0.00 | 81 | 1017.8 |
| 20260901084606 | 18 | 0 | 0.0 | 1.6 | 0.00 | 0.00 | 0.00 | 81 | 1017.7 |
| 20260901083049 | 18 | 0 | 0.0 | 0.0 | 0.00 | 0.00 | 0.00 | 80 | 1018.0 |
| 20260901081557 | 18 | 0 | 0.0 | 1.6 | 0.00 | 0.00 | 0.00 | 80 | 1017.8 |
| 20260901080109 | 18 | 0 | 0.0 | 0.0 | 0.00 | 0.00 | 0.00 | 80 | 1018.0 |
| 20260901074628 | 18 | 0 | 0.0 | 1.6 | 0.00 | 0.00 | 0.00 | 79 | 1018.1 |
| 20260901073059 | 18 | 0 | 0.0 | 1.6 | 0.00 | 0.00 | 0.00 | 80 | 1018.2 |
| 20260901071555 | 18 | 0 | 0.0 | 0.0 | 0.00 | 0.00 | 0.00 | 81 | 1018.2 |
| 20260901070053 | 18 | 0 | 0.0 | 0.0 | 0.00 | 0.00 | 0.00 | 81 | 1018.5 |
| 20260901064550 | 18 | 0 | 0.0 | 3.2 | 0.00 | 0.00 | 0.00 | 82 | 1018.4 |
| 20260901063056 | 18 | 0 | 0.0 | 1.6 | 0.00 | 0.00 | 0.00 | 83 | 1018.5 |
| 20260901061555 | 17 | 0 | 0.0 | 0.0 | 0.00 | 0.00 | 0.00 | 85 | 1018.4 |